| time (UTC) | temp C | wind direction | speed KPH | gust KPH | rain 1hr cm | rain 24hr cm | rain mn cm | humidity % | barometer mb |
| 20260506135904 | 25 | 101 | 0.0 | 4.8 | 0.00 | 0.00 | 0.00 | 79 | 1014.8 |
| 20260506135404 | 25 | 76 | 1.6 | 9.7 | 0.00 | 0.00 | 0.00 | 79 | 1014.8 |
| 20260506134904 | 26 | 94 | 1.6 | 12.9 | 0.00 | 0.00 | 0.00 | 79 | 1014.7 |
| 20260506134404 | 26 | 63 | 1.6 | 11.3 | 0.00 | 0.00 | 0.00 | 79 | 1014.7 |
| 20260506133904 | 26 | 107 | 8.0 | 19.3 | 0.00 | 0.00 | 0.00 | 78 | 1014.6 |
| 20260506133404 | 26 | 117 | 1.6 | 19.3 | 0.00 | 0.00 | 0.00 | 79 | 1014.5 |
| 20260506132904 | 26 | 102 | 3.2 | 14.5 | 0.00 | 0.00 | 0.00 | 78 | 1014.5 |
| 20260506131905 | 26 | 50 | 1.6 | 16.1 | 0.00 | 0.00 | 0.00 | 77 | 1014.5 |
| 20260506131404 | 26 | 94 | 3.2 | 14.5 | 0.00 | 0.00 | 0.00 | 77 | 1014.5 |
| 20260506130904 | 26 | 123 | 1.6 | 12.9 | 0.00 | 0.00 | 0.00 | 76 | 1014.4 |
| 20260506130405 | 26 | 86 | 3.2 | 14.5 | 0.00 | 0.00 | 0.00 | 77 | 1014.4 |
| 20260506125903 | 26 | 106 | 4.8 | 16.1 | 0.00 | 0.00 | 0.00 | 77 | 1014.4 |
| 20260506125404 | 26 | 98 | 1.6 | 14.5 | 0.00 | 0.00 | 0.00 | 77 | 1014.3 |
| 20260506124904 | 26 | 105 | 4.8 | 16.1 | 0.00 | 0.00 | 0.00 | 76 | 1014.3 |
| 20260506123904 | 26 | 124 | 3.2 | 20.9 | 0.00 | 0.00 | 0.00 | 76 | 1014.2 |
| 20260506122904 | 27 | 90 | 8.0 | 19.3 | 0.00 | 0.00 | 0.00 | 75 | 1014.2 |
| 20260506122404 | 27 | 85 | 6.4 | 19.3 | 0.00 | 0.00 | 0.00 | 76 | 1014.2 |
| 20260506121904 | 27 | 125 | 4.8 | 24.1 | 0.00 | 0.00 | 0.00 | 76 | 1014.2 |
| 20260506121404 | 27 | 87 | 8.0 | 19.3 | 0.00 | 0.00 | 0.00 | 75 | 1014.1 |
| 20260506120904 | 27 | 93 | 8.0 | 19.3 | 0.00 | 0.00 | 0.00 | 75 | 1014.1 |
| 20260506120404 | 27 | 110 | 3.2 | 24.1 | 0.00 | 0.00 | 0.00 | 74 | 1014.1 |
| 20260506115904 | 27 | 71 | 9.7 | 19.3 | 0.00 | 0.00 | 0.00 | 75 | 1014.1 |
| 20260506115404 | 27 | 109 | 11.3 | 22.5 | 0.00 | 0.00 | 0.00 | 73 | 1014.1 |
| 20260506114904 | 27 | 88 | 6.4 | 19.3 | 0.00 | 0.00 | 0.00 | 74 | 1014.1 |
| 20260506114404 | 27 | 135 | 8.0 | 16.1 | 0.00 | 0.00 | 0.00 | 75 | 1014.0 |
| 20260506113904 | 27 | 62 | 3.2 | 19.3 | 0.00 | 0.00 | 0.00 | 75 | 1014.0 |
| 20260506112904 | 27 | 96 | 8.0 | 16.1 | 0.00 | 0.00 | 0.00 | 74 | 1014.0 |
| 20260506112404 | 27 | 79 | 6.4 | 19.3 | 0.00 | 0.00 | 0.00 | 75 | 1013.9 |
| 20260506111904 | 27 | 93 | 8.0 | 19.3 | 0.00 | 0.00 | 0.00 | 76 | 1014.0 |
| 20260506111404 | 27 | 101 | 3.2 | 22.5 | 0.00 | 0.00 | 0.00 | 75 | 1013.9 |
| 20260506110403 | 27 | 124 | 9.7 | 20.9 | 0.00 | 0.00 | 0.00 | 77 | 1013.9 |
| 20260506105905 | 27 | 114 | 4.8 | 19.3 | 0.00 | 0.00 | 0.00 | 78 | 1013.9 |
| 20260506105404 | 26 | 94 | 4.8 | 20.9 | 0.00 | 0.00 | 0.00 | 78 | 1013.9 |
| 20260506104904 | 27 | 126 | 8.0 | 19.3 | 0.00 | 0.00 | 0.00 | 77 | 1013.9 |
| 20260506104404 | 27 | 85 | 11.3 | 20.9 | 0.00 | 0.00 | 0.00 | 76 | 1013.9 |
| 20260506103904 | 27 | 121 | 3.2 | 19.3 | 0.00 | 0.00 | 0.00 | 76 | 1013.9 |
| 20260506103404 | 27 | 71 | 4.8 | 19.3 | 0.00 | 0.00 | 0.00 | 74 | 1013.8 |
| 20260506102904 | 27 | 77 | 8.0 | 20.9 | 0.00 | 0.00 | 0.00 | 75 | 1013.8 |
| 20260506101905 | 27 | 115 | 9.7 | 22.5 | 0.00 | 0.00 | 0.00 | 75 | 1013.8 |
| 20260506101403 | 28 | 113 | 8.0 | 19.3 | 0.00 | 0.00 | 0.00 | 73 | 1013.9 |
| 20260506100904 | 28 | 122 | 3.2 | 24.1 | 0.00 | 0.00 | 0.00 | 73 | 1013.9 |
| 20260506100404 | 28 | 87 | 6.4 | 19.3 | 0.00 | 0.00 | 0.00 | 73 | 1014.0 |
| 20260506095905 | 27 | 117 | 12.9 | 20.9 | 0.00 | 0.00 | 0.00 | 72 | 1014.1 |
| 20260506095404 | 27 | 73 | 14.5 | 20.9 | 0.00 | 0.00 | 0.00 | 71 | 1014.3 |
| 20260506094904 | 27 | 105 | 8.0 | 19.3 | 0.00 | 0.00 | 0.00 | 69 | 1014.3 |
| 20260506094403 | 27 | 99 | 8.0 | 22.5 | 0.00 | 0.00 | 0.00 | 71 | 1014.4 |
| 20260506093904 | 27 | 75 | 6.4 | 14.5 | 0.00 | 0.00 | 0.00 | 74 | 1014.4 |
| 20260506093403 | 27 | 66 | 6.4 | 19.3 | 0.00 | 0.00 | 0.00 | 73 | 1014.4 |
| 20260506092904 | 27 | 90 | 6.4 | 16.1 | 0.00 | 0.00 | 0.00 | 75 | 1014.6 |
| 20260506092404 | 27 | 83 | 11.3 | 22.5 | 0.00 | 0.00 | 0.00 | 74 | 1014.6 |
| 20260506091904 | 27 | 73 | 8.0 | 14.5 | 0.00 | 0.00 | 0.00 | 74 | 1014.5 |
| 20260506090904 | 27 | 157 | 4.8 | 19.3 | 0.00 | 0.00 | 0.00 | 74 | 1014.7 |
| 20260506090404 | 27 | 105 | 8.0 | 19.3 | 0.00 | 0.00 | 0.00 | 74 | 1014.7 |
| 20260506085404 | 27 | 66 | 6.4 | 19.3 | 0.00 | 0.00 | 0.00 | 73 | 1014.8 |
| 20260506084904 | 27 | 57 | 8.0 | 22.5 | 0.00 | 0.00 | 0.00 | 71 | 1014.9 |
| 20260506083904 | 27 | 98 | 9.7 | 24.1 | 0.00 | 0.00 | 0.00 | 72 | 1014.9 |
| 20260506082404 | 27 | 80 | 6.4 | 20.9 | 0.00 | 0.00 | 0.00 | 74 | 1015.1 |
| 20260506081904 | 27 | 90 | 8.0 | 19.3 | 0.00 | 0.00 | 0.00 | 74 | 1015.2 |
| 20260506081405 | 27 | 118 | 9.7 | 22.5 | 0.00 | 0.00 | 0.00 | 75 | 1015.2 |
| 20260506080904 | 27 | 102 | 8.0 | 19.3 | 0.00 | 0.00 | 0.00 | 74 | 1015.2 |
| 20260506080404 | 27 | 122 | 14.5 | 20.9 | 0.00 | 0.00 | 0.00 | 75 | 1015.2 |
| 20260506073403 | 27 | 71 | 1.6 | 16.1 | 0.00 | 0.00 | 0.00 | 76 | 1015.6 |
| 20260506072905 | 27 | 97 | 3.2 | 19.3 | 0.00 | 0.00 | 0.00 | 77 | 1015.6 |
| 20260506072404 | 27 | 81 | 9.7 | 19.3 | 0.00 | 0.00 | 0.00 | 76 | 1015.6 |
| 20260506071904 | 27 | 91 | 11.3 | 22.5 | 0.00 | 0.00 | 0.00 | 75 | 1015.7 |
| 20260506071403 | 27 | 87 | 11.3 | 27.4 | 0.00 | 0.00 | 0.00 | 75 | 1015.7 |
| 20260506070904 | 27 | 94 | 9.7 | 20.9 | 0.00 | 0.00 | 0.00 | 74 | 1015.8 |
| 20260506061904 | 27 | 105 | 4.8 | 22.5 | 0.00 | 0.00 | 0.00 | 75 | 1016.3 |
| 20260506061404 | 27 | 75 | 11.3 | 24.1 | 0.00 | 0.00 | 0.00 | 75 | 1016.4 |
| 20260506060904 | 27 | 100 | 8.0 | 29.0 | 0.00 | 0.00 | 0.00 | 75 | 1016.4 |
| 20260506060404 | 27 | 78 | 11.3 | 25.7 | 0.00 | 0.00 | 0.00 | 75 | 1016.4 |
| 20260506051404 | 27 | 78 | 9.7 | 24.1 | 0.00 | 0.00 | 0.00 | 77 | 1016.7 |
| 20260506050904 | 26 | 115 | 6.4 | 19.3 | 0.00 | 0.00 | 0.00 | 78 | 1016.7 |
| 20260506050404 | 26 | 71 | 8.0 | 22.5 | 0.00 | 0.00 | 0.00 | 77 | 1016.7 |
| 20260506044904 | 26 | 95 | 8.0 | 20.9 | 0.00 | 0.00 | 0.00 | 78 | 1016.7 |
| 20260506044404 | 26 | 107 | 8.0 | 19.3 | 0.00 | 0.00 | 0.00 | 77 | 1016.7 |
| 20260506043904 | 26 | 87 | 8.0 | 22.5 | 0.00 | 0.00 | 0.00 | 79 | 1016.7 |
| 20260506042404 | 26 | 85 | 3.2 | 14.5 | 0.00 | 0.00 | 0.00 | 78 | 1016.6 |
| 20260506041904 | 26 | 91 | 8.0 | 16.1 | 0.00 | 0.00 | 0.00 | 78 | 1016.5 |
| 20260506041404 | 26 | 104 | 3.2 | 16.1 | 0.00 | 0.00 | 0.00 | 80 | 1016.5 |
| 20260506040904 | 26 | 105 | 6.4 | 20.9 | 0.00 | 0.00 | 0.00 | 79 | 1016.5 |
| 20260506035903 | 26 | 113 | 8.0 | 16.1 | 0.00 | 0.00 | 0.00 | 79 | 1016.4 |
| 20260506035403 | 26 | 119 | 6.4 | 19.3 | 0.00 | 0.00 | 0.00 | 80 | 1016.3 |
| 20260506034904 | 26 | 99 | 4.8 | 12.9 | 0.00 | 0.00 | 0.00 | 80 | 1016.2 |
| 20260506034404 | 26 | 109 | 3.2 | 14.5 | 0.00 | 0.00 | 0.00 | 80 | 1016.2 |
| 20260506033904 | 26 | 114 | 4.8 | 12.9 | 0.00 | 0.00 | 0.00 | 80 | 1016.2 |
| 20260506033404 | 25 | 101 | 1.6 | 19.3 | 0.00 | 0.00 | 0.00 | 81 | 1016.2 |
| 20260506032904 | 25 | 80 | 4.8 | 12.9 | 0.00 | 0.00 | 0.00 | 81 | 1016.1 |
| 20260506031904 | 25 | 92 | 1.6 | 11.3 | 0.00 | 0.00 | 0.00 | 84 | 1016.1 |
| 20260506031405 | 24 | 59 | 0.0 | 4.8 | 0.00 | 0.00 | 0.00 | 86 | 1016.1 |
| 20260506030904 | 23 | 144 | 0.0 | 4.8 | 0.00 | 0.00 | 0.00 | 87 | 1016.0 |
| 20260506025904 | 23 | 144 | 0.0 | 1.6 | 0.00 | 0.00 | 0.00 | 88 | 1016.0 |
| 20260506025404 | 23 | 144 | 0.0 | 0.0 | 0.00 | 0.00 | 0.00 | 88 | 1015.9 |
| 20260506024904 | 23 | 144 | 0.0 | 4.8 | 0.00 | 0.00 | 0.00 | 88 | 1015.8 |
| 20260506024404 | 23 | 0 | 0.0 | 0.0 | 0.00 | 0.00 | 0.00 | 88 | 1015.8 |
| 20260506023904 | 23 | 173 | 0.0 | 0.0 | 0.00 | 0.00 | 0.00 | 88 | 1015.7 |
| 20260506023404 | 23 | 173 | 0.0 | 0.0 | 0.00 | 0.00 | 0.00 | 87 | 1015.7 |
| 20260506022904 | 23 | 126 | 0.0 | 0.0 | 0.00 | 0.00 | 0.00 | 87 | 1015.6 |
| 20260506021904 | 23 | 124 | 0.0 | 0.0 | 0.00 | 0.00 | 0.00 | 87 | 1015.5 |
| 20260506020904 | 23 | 124 | 0.0 | 0.0 | 0.00 | 0.00 | 0.00 | 87 | 1015.4 |
| 20260506015904 | 23 | 144 | 0.0 | 4.8 | 0.00 | 0.00 | 0.00 | 87 | 1015.4 |
| 20260506015404 | 23 | 140 | 0.0 | 4.8 | 0.00 | 0.00 | 0.00 | 87 | 1015.4 |
| 20260506014904 | 23 | 148 | 0.0 | 0.0 | 0.00 | 0.00 | 0.00 | 87 | 1015.4 |
| 20260506014404 | 23 | 153 | 0.0 | 1.6 | 0.00 | 0.00 | 0.00 | 87 | 1015.4 |
| 20260506013904 | 23 | 184 | 0.0 | 0.0 | 0.00 | 0.00 | 0.00 | 87 | 1015.4 |
| 20260506013404 | 23 | 184 | 0.0 | 0.0 | 0.00 | 0.00 | 0.00 | 87 | 1015.3 |
| 20260506012904 | 23 | 185 | 0.0 | 0.0 | 0.00 | 0.00 | 0.00 | 86 | 1015.3 |
| 20260506012404 | 23 | 114 | 0.0 | 0.0 | 0.00 | 0.00 | 0.00 | 86 | 1015.3 |
| 20260506011904 | 23 | 113 | 0.0 | 4.8 | 0.00 | 0.00 | 0.00 | 86 | 1015.3 |
| 20260506011404 | 23 | 129 | 1.6 | 4.8 | 0.00 | 0.00 | 0.00 | 87 | 1015.2 |
| 20260506010904 | 23 | 157 | 0.0 | 4.8 | 0.00 | 0.00 | 0.00 | 87 | 1015.2 |
| 20260506005904 | 23 | 123 | 0.0 | 4.8 | 0.00 | 0.00 | 0.00 | 87 | 1015.1 |
| 20260506004905 | 23 | 106 | 0.0 | 4.8 | 0.00 | 0.00 | 0.00 | 87 | 1015.0 |
| 20260506004404 | 23 | 126 | 0.0 | 0.0 | 0.00 | 0.00 | 0.00 | 87 | 1015.1 |
| 20260506003904 | 23 | 126 | 0.0 | 9.7 | 0.00 | 0.00 | 0.00 | 87 | 1015.0 |
| 20260506003404 | 23 | 155 | 0.0 | 0.0 | 0.00 | 0.00 | 0.00 | 87 | 1015.0 |
| 20260506002904 | 23 | 165 | 0.0 | 4.8 | 0.00 | 0.00 | 0.00 | 87 | 1015.0 |
| 20260506002404 | 23 | 124 | 0.0 | 8.0 | 0.00 | 0.00 | 0.00 | 87 | 1015.0 |
| 20260506001904 | 23 | 139 | 1.6 | 4.8 | 0.00 | 0.00 | 0.00 | 87 | 1015.0 |
| 20260506001405 | 23 | 145 | 1.6 | 9.7 | 0.00 | 0.00 | 0.00 | 87 | 1015.1 |
| 20260506000905 | 23 | 147 | 0.0 | 8.0 | 0.00 | 0.00 | 0.00 | 87 | 1015.0 |
| 20260506000404 | 23 | 170 | 0.0 | 8.0 | 0.00 | 0.00 | 0.00 | 87 | 1015.1 |
| 20260505235905 | 23 | 130 | 1.6 | 8.0 | 0.00 | 0.00 | 0.00 | 87 | 1015.1 |
| 20260505235404 | 23 | 138 | 1.6 | 9.7 | 0.00 | 0.00 | 0.00 | 87 | 1015.2 |
| 20260505234905 | 23 | 166 | 0.0 | 8.0 | 0.00 | 0.00 | 0.00 | 87 | 1015.2 |
| 20260505234404 | 23 | 150 | 1.6 | 4.8 | 0.00 | 0.00 | 0.00 | 87 | 1015.3 |
| 20260505233904 | 23 | 132 | 1.6 | 9.7 | 0.00 | 0.00 | 0.00 | 87 | 1015.2 |
| 20260505232905 | 23 | 140 | 1.6 | 8.0 | 0.00 | 0.00 | 0.00 | 87 | 1015.2 |
| 20260505232404 | 23 | 160 | 3.2 | 11.3 | 0.00 | 0.00 | 0.00 | 87 | 1015.3 |
| 20260505231904 | 23 | 87 | 1.6 | 8.0 | 0.00 | 0.00 | 0.00 | 87 | 1015.2 |
| 20260505231404 | 23 | 141 | 1.6 | 11.3 | 0.00 | 0.00 | 0.00 | 88 | 1015.1 |
| 20260505230905 | 22 | 114 | 1.6 | 9.7 | 0.00 | 0.00 | 0.00 | 88 | 1015.3 |
| 20260505230404 | 22 | 71 | 0.0 | 4.8 | 0.00 | 0.00 | 0.00 | 88 | 1015.3 |
| 20260505225904 | 22 | 150 | 0.0 | 4.8 | 0.00 | 0.00 | 0.00 | 88 | 1015.4 |
| 20260505225404 | 22 | 162 | 1.6 | 9.7 | 0.00 | 0.00 | 0.00 | 88 | 1015.5 |
| 20260505224904 | 22 | 149 | 1.6 | 9.7 | 0.00 | 0.00 | 0.00 | 88 | 1015.6 |
| 20260505224404 | 22 | 148 | 0.0 | 4.8 | 0.00 | 0.00 | 0.00 | 88 | 1015.6 |
| 20260505223904 | 22 | 159 | 1.6 | 4.8 | 0.00 | 0.00 | 0.00 | 88 | 1015.6 |
| 20260505223404 | 22 | 148 | 0.0 | 4.8 | 0.00 | 0.00 | 0.00 | 88 | 1015.7 |
| 20260505222904 | 22 | 151 | 0.0 | 4.8 | 0.00 | 0.00 | 0.00 | 88 | 1015.7 |
| 20260505222404 | 22 | 148 | 0.0 | 8.0 | 0.00 | 0.00 | 0.00 | 88 | 1015.7 |
| 20260505220904 | 22 | 157 | 0.0 | 4.8 | 0.00 | 0.00 | 0.00 | 88 | 1015.9 |
| 20260505220404 | 22 | 151 | 0.0 | 4.8 | 0.00 | 0.00 | 0.00 | 88 | 1015.8 |
| 20260505215404 | 22 | 149 | 0.0 | 1.6 | 0.00 | 0.00 | 0.00 | 87 | 1015.8 |
| 20260505214904 | 23 | 139 | 0.0 | 0.0 | 0.00 | 0.00 | 0.00 | 87 | 1015.9 |
| 20260505213404 | 23 | 165 | 0.0 | 0.0 | 0.00 | 0.00 | 0.00 | 87 | 1016.1 |
| 20260505212904 | 23 | 156 | 0.0 | 8.0 | 0.00 | 0.00 | 0.00 | 87 | 1016.1 |
| 20260505212404 | 23 | 135 | 1.6 | 4.8 | 0.00 | 0.00 | 0.00 | 87 | 1016.1 |
| 20260505211904 | 23 | 148 | 1.6 | 9.7 | 0.00 | 0.00 | 0.00 | 87 | 1016.2 |
| 20260505211404 | 23 | 178 | 0.0 | 4.8 | 0.00 | 0.00 | 0.00 | 87 | 1016.4 |
| 20260505210904 | 23 | 146 | 1.6 | 4.8 | 0.00 | 0.00 | 0.00 | 87 | 1016.4 |
| 20260505210403 | 23 | 73 | 0.0 | 8.0 | 0.00 | 0.00 | 0.00 | 87 | 1016.4 |
| 20260505205904 | 23 | 126 | 0.0 | 1.6 | 0.00 | 0.00 | 0.00 | 87 | 1016.5 |
| 20260505204904 | 23 | 165 | 0.0 | 0.0 | 0.00 | 0.00 | 0.00 | 87 | 1016.5 |
| 20260505204404 | 23 | 155 | 0.0 | 3.2 | 0.00 | 0.00 | 0.00 | 87 | 1016.5 |
| 20260505203905 | 23 | 162 | 1.6 | 9.7 | 0.00 | 0.00 | 0.00 | 87 | 1016.5 |
| 20260505203403 | 23 | 156 | 1.6 | 11.3 | 0.00 | 0.00 | 0.00 | 87 | 1016.5 |
| 20260505201904 | 23 | 156 | 0.0 | 0.0 | 0.00 | 0.00 | 0.00 | 87 | 1016.7 |
| 20260505201405 | 22 | 160 | 0.0 | 4.8 | 0.00 | 0.00 | 0.00 | 87 | 1016.6 |
| 20260505200904 | 23 | 174 | 0.0 | 0.0 | 0.00 | 0.00 | 0.00 | 87 | 1016.7 |
| 20260505200405 | 23 | 187 | 0.0 | 0.0 | 0.00 | 0.00 | 0.00 | 87 | 1016.7 |
| 20260505195904 | 23 | 150 | 0.0 | 0.0 | 0.00 | 0.00 | 0.00 | 87 | 1016.8 |
| 20260505195404 | 23 | 152 | 0.0 | 0.0 | 0.00 | 0.00 | 0.00 | 87 | 1016.8 |
| 20260505194904 | 23 | 152 | 0.0 | 0.0 | 0.00 | 0.00 | 0.00 | 87 | 1016.7 |
| 20260505194404 | 23 | 153 | 0.0 | 0.0 | 0.00 | 0.00 | 0.00 | 87 | 1016.8 |
| 20260505192904 | 22 | 137 | 0.0 | 0.0 | 0.00 | 0.00 | 0.00 | 87 | 1016.8 |
| 20260505192404 | 22 | 168 | 0.0 | 0.0 | 0.00 | 0.00 | 0.00 | 87 | 1016.9 |
| 20260505191404 | 22 | 170 | 0.0 | 4.8 | 0.00 | 0.00 | 0.00 | 87 | 1016.9 |
| 20260505185904 | 22 | 170 | 0.0 | 4.8 | 0.00 | 0.00 | 0.00 | 86 | 1016.9 |
| 20260505185403 | 22 | 172 | 0.0 | 8.0 | 0.00 | 0.00 | 0.00 | 86 | 1016.9 |
| 20260505184904 | 22 | 184 | 0.0 | 3.2 | 0.00 | 0.00 | 0.00 | 86 | 1016.9 |
| 20260505184404 | 22 | 160 | 0.0 | 1.6 | 0.00 | 0.00 | 0.00 | 86 | 1016.9 |
| 20260505183904 | 22 | 161 | 0.0 | 0.0 | 0.00 | 0.00 | 0.00 | 86 | 1017.0 |
| 20260505183404 | 22 | 162 | 0.0 | 0.0 | 0.00 | 0.00 | 0.00 | 86 | 1017.0 |
| 20260505182904 | 22 | 162 | 0.0 | 0.0 | 0.00 | 0.00 | 0.00 | 86 | 1017.0 |
| 20260505182404 | 22 | 162 | 0.0 | 0.0 | 0.00 | 0.00 | 0.00 | 86 | 1016.9 |
| 20260505181904 | 22 | 162 | 0.0 | 0.0 | 0.00 | 0.00 | 0.00 | 86 | 1016.8 |
| 20260505181403 | 22 | 162 | 0.0 | 0.0 | 0.00 | 0.00 | 0.00 | 86 | 1016.8 |
| 20260505180405 | 22 | 174 | 0.0 | 0.0 | 0.00 | 0.00 | 0.00 | 86 | 1016.7 |
| 20260505175904 | 22 | 171 | 0.0 | 0.0 | 0.00 | 0.00 | 0.00 | 85 | 1016.7 |
| 20260505175404 | 22 | 164 | 0.0 | 1.6 | 0.00 | 0.00 | 0.00 | 85 | 1016.7 |
| 20260505174904 | 22 | 165 | 0.0 | 3.2 | 0.00 | 0.00 | 0.00 | 85 | 1016.8 |
| 20260505174405 | 22 | 163 | 0.0 | 1.6 | 0.00 | 0.00 | 0.00 | 85 | 1016.8 |
| 20260505172903 | 22 | 153 | 0.0 | 0.0 | 0.00 | 0.00 | 0.00 | 85 | 1016.8 |
| 20260505171404 | 22 | 170 | 0.0 | 3.2 | 0.00 | 0.00 | 0.00 | 85 | 1016.6 |
| 20260505170904 | 22 | 168 | 1.6 | 8.0 | 0.00 | 0.00 | 0.00 | 84 | 1016.6 |
| 20260505170404 | 22 | 153 | 0.0 | 0.0 | 0.00 | 0.00 | 0.00 | 84 | 1016.7 |
| 20260505165905 | 22 | 150 | 0.0 | 0.0 | 0.00 | 0.00 | 0.00 | 84 | 1016.8 |
| 20260505165405 | 22 | 146 | 0.0 | 0.0 | 0.00 | 0.00 | 0.00 | 84 | 1016.7 |
| 20260505164904 | 22 | 148 | 0.0 | 0.0 | 0.00 | 0.00 | 0.00 | 84 | 1016.6 |
| 20260505164404 | 22 | 144 | 0.0 | 0.0 | 0.00 | 0.00 | 0.00 | 83 | 1016.6 |
| 20260505163904 | 22 | 166 | 0.0 | 1.6 | 0.00 | 0.00 | 0.00 | 83 | 1016.6 |
| 20260505162904 | 22 | 157 | 0.0 | 0.0 | 0.00 | 0.00 | 0.00 | 83 | 1016.5 |
| 20260505161904 | 22 | 174 | 0.0 | 4.8 | 0.00 | 0.00 | 0.00 | 83 | 1016.6 |
| 20260505160904 | 23 | 160 | 0.0 | 0.0 | 0.00 | 0.00 | 0.00 | 82 | 1016.5 |
| 20260505160404 | 23 | 159 | 0.0 | 0.0 | 0.00 | 0.00 | 0.00 | 82 | 1016.4 |
| 20260505152904 | 23 | 155 | 0.0 | 4.8 | 0.00 | 0.00 | 0.00 | 80 | 1016.3 |
| 20260505152404 | 23 | 157 | 1.6 | 8.0 | 0.00 | 0.00 | 0.00 | 79 | 1016.2 |
| 20260505151904 | 23 | 172 | 0.0 | 4.8 | 0.00 | 0.00 | 0.00 | 79 | 1016.2 |
| 20260505150905 | 24 | 100 | 1.6 | 12.9 | 0.00 | 0.00 | 0.00 | 78 | 1016.0 |
| 20260505150404 | 24 | 125 | 1.6 | 8.0 | 0.00 | 0.00 | 0.00 | 78 | 1016.0 |
| 20260505140404 | 25 | 94 | 1.6 | 12.9 | 0.00 | 0.00 | 0.00 | 76 | 1015.8 |